When you browse on this site, cookies collect data to enhance your experience and personalize the content and advertising you see.
Visit our Privacy Policy to learn more. By continuing to use the site, you agree to this use of cookies and data.

Météo par heure à Trowbridge

Ce jour, 13 Juillet, Lundi

Heure Température Précipitation Vent Pression Humidité
00:00 +14°C° 0 mm 2 m/s 766 mmHg 78%
01:00 +14°C° 0 mm 2 m/s 766 mmHg 78%
02:00 +14°C° 0 mm 2 m/s 766 mmHg 79%
03:00 +13°C° 0 mm 2 m/s 765 mmHg 79%
04:00 +14°C° 0 mm 2 m/s 765 mmHg 80%
05:00 +14°C° 0 mm 2 m/s 765 mmHg 80%
06:00 +14°C° 0 mm 2 m/s 765 mmHg 81%
07:00 +16°C° 0 mm 2 m/s 765 mmHg 74%
08:00 +17°C° 0 mm 3 m/s 765 mmHg 67%
09:00 +19°C° 0 mm 4 m/s 765 mmHg 61%
10:00 +19°C° 0 mm 4 m/s 764 mmHg 60%
11:00 +20°C° 0 mm 4 m/s 764 mmHg 59%
12:00 +20°C° 0 mm 5 m/s 764 mmHg 58%
13:00 +19°C° 0.2 mm 4 m/s 763 mmHg 66%
14:00 +18°C° 0.2 mm 4 m/s 763 mmHg 75%
15:00 +17°C° 0.2 mm 4 m/s 763 mmHg 83%
16:00 +17°C° 0.4 mm 3 m/s 762 mmHg 87%
17:00 +17°C° 0.4 mm 3 m/s 762 mmHg 90%
18:00 +16°C° 0.4 mm 3 m/s 761 mmHg 93%
19:00 +16°C° 0.3 mm 3 m/s 761 mmHg 94%
20:00 +16°C° 0.3 mm 3 m/s 761 mmHg 96%
21:00 +16°C° 0.3 mm 3 m/s 761 mmHg 97%
22:00 +16°C° 0 mm 3 m/s 761 mmHg 97%
23:00 +16°C° 0 mm 3 m/s 760 mmHg 97%

Demain, 14 Juillet, Mardi

Heure Température Précipitation Vent Pression Humidité
00:00 +15°C° 0 mm 2 m/s 760 mmHg 97%
01:00 +15°C° 0 mm 2 m/s 760 mmHg 97%
02:00 +15°C° 0 mm 2 m/s 759 mmHg 97%
03:00 +14°C° 0 mm 2 m/s 759 mmHg 97%
04:00 +15°C° 0.1 mm 2 m/s 759 mmHg 96%
05:00 +15°C° 0.1 mm 2 m/s 759 mmHg 95%
06:00 +15°C° 0.1 mm 2 m/s 759 mmHg 93%
07:00 +16°C° 0 mm 3 m/s 759 mmHg 89%
08:00 +16°C° 0 mm 3 m/s 759 mmHg 84%
09:00 +16°C° 0 mm 3 m/s 759 mmHg 80%
10:00 +17°C° 0 mm 4 m/s 760 mmHg 75%
11:00 +18°C° 0 mm 4 m/s 760 mmHg 71%
12:00 +18°C° 0 mm 4 m/s 760 mmHg 66%
13:00 +18°C° 0 mm 4 m/s 759 mmHg 66%
14:00 +19°C° 0 mm 4 m/s 759 mmHg 65%
15:00 +19°C° 0 mm 4 m/s 759 mmHg 64%
16:00 +18°C° 0.1 mm 4 m/s 759 mmHg 68%
17:00 +18°C° 0.1 mm 4 m/s 759 mmHg 72%
18:00 +17°C° 0.1 mm 4 m/s 759 mmHg 76%
19:00 +15°C° 0 mm 4 m/s 759 mmHg 80%
20:00 +13°C° 0 mm 3 m/s 759 mmHg 84%
21:00 +12°C° 0 mm 3 m/s 759 mmHg 88%
22:00 +13°C° 0 mm 2 m/s 759 mmHg 87%
23:00 +13°C° 0 mm 2 m/s 759 mmHg 87%

Après-demain, 15 Juillet, Mercredi

Heure Température Précipitation Vent Pression Humidité
00:00 +13°C° 0 mm 2 m/s 759 mmHg 86%
01:00 +13°C° 0 mm 2 m/s 759 mmHg 87%
02:00 +13°C° 0 mm 2 m/s 759 mmHg 88%
03:00 +13°C° 0 mm 2 m/s 759 mmHg 88%
04:00 +13°C° 0 mm 2 m/s 759 mmHg 89%
05:00 +14°C° 0 mm 2 m/s 759 mmHg 90%
06:00 +14°C° 0 mm 2 m/s 759 mmHg 91%
07:00 +14°C° 0 mm 2 m/s 759 mmHg 90%
08:00 +15°C° 0 mm 2 m/s 759 mmHg 88%
09:00 +14°C° 0 mm 3 m/s 759 mmHg 87%
10:00 +16°C° 0 mm 3 m/s 759 mmHg 83%
11:00 +17°C° 0 mm 3 m/s 760 mmHg 79%
12:00 +18°C° 0 mm 3 m/s 760 mmHg 75%
13:00 +19°C° 0 mm 3 m/s 760 mmHg 75%
14:00 +19°C° 0 mm 4 m/s 760 mmHg 74%
15:00 +19°C° 0 mm 4 m/s 760 mmHg 74%
16:00 +19°C° 0 mm 4 m/s 760 mmHg 76%
17:00 +19°C° 0 mm 4 m/s 760 mmHg 78%
18:00 +19°C° 0 mm 4 m/s 760 mmHg 80%
19:00 +17°C° 0 mm 3 m/s 760 mmHg 84%
20:00 +16°C° 0 mm 3 m/s 761 mmHg 88%
21:00 +14°C° 0 mm 3 m/s 761 mmHg 92%
22:00 +15°C° 0 mm 2 m/s 761 mmHg 92%
23:00 +14°C° 0 mm 2 m/s 761 mmHg 92%

16 Juillet, Jeudi

Heure Température Précipitation Vent Pression Humidité
00:00 +14°C° 0 mm 2 m/s 761 mmHg 92%
01:00 +13°C° 0 mm 2 m/s 761 mmHg 92%
02:00 +13°C° 0 mm 2 m/s 761 mmHg 93%
03:00 +13°C° 0 mm 2 m/s 761 mmHg 93%
04:00 +13°C° 0 mm 2 m/s 761 mmHg 91%
05:00 +14°C° 0 mm 2 m/s 761 mmHg 90%
06:00 +14°C° 0 mm 2 m/s 761 mmHg 88%
07:00 +16°C° 0 mm 2 m/s 762 mmHg 83%
08:00 +17°C° 0 mm 3 m/s 762 mmHg 77%
09:00 +19°C° 0 mm 3 m/s 762 mmHg 71%
10:00 +19°C° 0 mm 3 m/s 762 mmHg 71%
11:00 +20°C° 0 mm 3 m/s 762 mmHg 71%
12:00 +20°C° 0 mm 3 m/s 763 mmHg 71%
13:00 +20°C° 0 mm 3 m/s 763 mmHg 70%
14:00 +21°C° 0 mm 3 m/s 762 mmHg 70%
15:00 +21°C° 0 mm 3 m/s 762 mmHg 70%
16:00 +21°C° 0 mm 3 m/s 762 mmHg 73%
17:00 +20°C° 0 mm 3 m/s 762 mmHg 77%
18:00 +20°C° 0 mm 3 m/s 762 mmHg 80%
19:00 +19°C° 0 mm 3 m/s 763 mmHg 84%
20:00 +18°C° 0 mm 2 m/s 763 mmHg 88%
21:00 +17°C° 0 mm 2 m/s 763 mmHg 92%
22:00 +17°C° 0 mm 2 m/s 763 mmHg 93%
23:00 +16°C° 0 mm 2 m/s 763 mmHg 94%

17 Juillet, Vendredi

Heure Température Précipitation Vent Pression Humidité
00:00 +16°C° 0 mm 2 m/s 763 mmHg 95%
01:00 +15°C° 0 mm 2 m/s 763 mmHg 95%
02:00 +15°C° 0 mm 2 m/s 763 mmHg 95%
03:00 +15°C° 0 mm 1 m/s 762 mmHg 96%
04:00 +16°C° 0 mm 1 m/s 762 mmHg 94%
05:00 +16°C° 0 mm 1 m/s 763 mmHg 93%
06:00 +18°C° 0 mm 1 m/s 763 mmHg 92%
07:00 +19°C° 0 mm 1 m/s 763 mmHg 86%
08:00 +21°C° 0 mm 1 m/s 763 mmHg 81%
09:00 +21°C° 0 mm 2 m/s 763 mmHg 75%
10:00 +23°C° 0 mm 2 m/s 763 mmHg 71%
11:00 +24°C° 0 mm 2 m/s 763 mmHg 67%
12:00 +25°C° 0 mm 3 m/s 763 mmHg 64%
13:00 +25°C° 0 mm 3 m/s 763 mmHg 63%
14:00 +25°C° 0 mm 3 m/s 763 mmHg 63%
15:00 +25°C° 0 mm 3 m/s 762 mmHg 62%
16:00 +25°C° 0 mm 3 m/s 762 mmHg 66%
17:00 +24°C° 0 mm 3 m/s 762 mmHg 70%
18:00 +22°C° 0 mm 3 m/s 762 mmHg 74%
19:00 +20°C° 0 mm 3 m/s 762 mmHg 81%
20:00 +18°C° 0 mm 3 m/s 762 mmHg 87%
21:00 +16°C° 0 mm 3 m/s 762 mmHg 94%
22:00 +16°C° 0 mm 3 m/s 762 mmHg 94%
23:00 +15°C° 0 mm 2 m/s 762 mmHg 94%

18 Juillet, Samedi

Heure Température Précipitation Vent Pression Humidité
00:00 +14°C° 0 mm 2 m/s 762 mmHg 95%
01:00 +14°C° 0 mm 2 m/s 762 mmHg 95%
02:00 +14°C° 0 mm 2 m/s 762 mmHg 96%
03:00 +14°C° 0 mm 2 m/s 761 mmHg 96%
04:00 +14°C° 0 mm 2 m/s 761 mmHg 95%
05:00 +14°C° 0 mm 3 m/s 761 mmHg 94%
06:00 +14°C° 0 mm 3 m/s 761 mmHg 92%
07:00 +16°C° 0 mm 3 m/s 761 mmHg 87%
08:00 +18°C° 0 mm 3 m/s 761 mmHg 81%
09:00 +19°C° 0 mm 4 m/s 761 mmHg 75%
10:00 +19°C° 0 mm 4 m/s 761 mmHg 73%
11:00 +20°C° 0 mm 4 m/s 761 mmHg 70%
12:00 +21°C° 0 mm 5 m/s 761 mmHg 67%
13:00 +21°C° 0 mm 5 m/s 760 mmHg 67%
14:00 +22°C° 0 mm 5 m/s 760 mmHg 67%
15:00 +22°C° 0 mm 5 m/s 760 mmHg 67%
16:00 +21°C° 0 mm 5 m/s 760 mmHg 71%
17:00 +21°C° 0 mm 5 m/s 760 mmHg 74%
18:00 +20°C° 0 mm 5 m/s 760 mmHg 77%
19:00 +19°C° 0 mm 4 m/s 760 mmHg 82%
20:00 +18°C° 0 mm 3 m/s 760 mmHg 87%
21:00 +17°C° 0 mm 2 m/s 760 mmHg 93%
22:00 +16°C° 0 mm 2 m/s 760 mmHg 94%
23:00 +16°C° 0 mm 2 m/s 760 mmHg 95%
Voir plus